QPF
0.07 0.06 0.05 0.04 0.04 0.04 0.04 0.04 0.04 0.04 0.03 0.03 0.03 0.03 0.04 0.04 0.03 0.03 0.02 0.02 0.01 0.01 0.01 0.02 0.02 0.01 0.01 0.01 0.01 0.02 0.07 0.10 0.09 0.07 0.04 0.02 0.02 0.02
0.06 0.06 0.06 0.05 0.05 0.06 0.07 0.06 0.05 0.04 0.03 0.02 0.01 0.01 0.03 0.05 0.05 0.04 0.03 0.02 0.02 0.01 0.01 0.01 0.02 0.01 0.01 0.01 0.01 0.01 0.02 0.05 0.08 0.07 0.04 0.02 0.02 0.02
0.04 0.04 0.03 0.03 0.03 0.04 0.06 0.06 0.05 0.05 0.04 0.02 0.01 0.01 0.02 0.04 0.06 0.05 0.04 0.04 0.03 0.02 0.01 0.01 0.01 0.02 0.02 0.01 0.01 0.01 0.01 0.02 0.03 0.05 0.04 0.02 0.02 0.01
0.04 0.03 0.03 0.02 0.02 0.03 0.04 0.04 0.04 0.04 0.04 0.03 0.02 0.02 0.02 0.02 0.04 0.04 0.04 0.04 0.04 0.03 0.02 0.01 0.01 0.01 0.01 0.01 0.02 0.02 0.01 0.01 0.01 0.02 0.03 0.03 0.02 0.01
0.03 0.03 0.03 0.02 0.02 0.02 0.02 0.03 0.04 0.04 0.04 0.04 0.03 0.03 0.03 0.03 0.04 0.05 0.04 0.04 0.04 0.03 0.02 0.02 0.01 0.01 0.01 0.01 0.02 0.02 0.01 0.01 0.01 0.01 0.01 0.02 0.02 0.02
0.03 0.03 0.03 0.03 0.03 0.02 0.02 0.03 0.04 0.05 0.05 0.05 0.04 0.03 0.04 0.04 0.04 0.04 0.05 0.04 0.04 0.04 0.04 0.03 0.02 0.01 0.01 0.01 0.01 0.01 0.01 0.01 0.01 0.01 0.01 0.01 0.01 0.02
0.03 0.03 0.03 0.03 0.03 0.03 0.03 0.03 0.04 0.05 0.05 0.05 0.04 0.04 0.05 0.05 0.04 0.04 0.03 0.04 0.04 0.04 0.04 0.04 0.02 0.01 0.01 0.01 0.01 0.01 0.01 0.01 0.01 0.01 0.01 0.01 0.01 0.02
0.03 0.03 0.03 0.03 0.03 0.03 0.03 0.03 0.04 0.05 0.05 0.05 0.05 0.04 0.04 0.03 0.03 0.03 0.03 0.04 0.05 0.04 0.04 0.03 0.02 0.01 0.01 0.00 0.00 0.01 0.01 0.01 0.01 0.01 0.01 0.01 0.01 0.01
0.02 0.03 0.03 0.03 0.03 0.03 0.03 0.03 0.03 0.04 0.04 0.05 0.05 0.04 0.03 0.03 0.03 0.03 0.03 0.03 0.03 0.03 0.03 0.03 0.03 0.02 0.01 0.01 0.01 0.00 0.01 0.01 0.01 0.01 0.01 0.01 0.01 0.01
0.01 0.01 0.02 0.02 0.03 0.03 0.03 0.02 0.02 0.02 0.02 0.03 0.04 0.03 0.03 0.02 0.03 0.03 0.03 0.03 0.03 0.03 0.03 0.03 0.03 0.03 0.02 0.01 0.01 0.01 0.01 0.01 0.01 0.01 0.01 0.01 0.01 0.01
0.01 0.01 0.01 0.02 0.02 0.03 0.03 0.03 0.02 0.02 0.02 0.02 0.03 0.04 0.04 0.04 0.04 0.05 0.06 0.07 0.06 0.05 0.04 0.03 0.03 0.03 0.03 0.03 0.02 0.02 0.01 0.02 0.02 0.01 0.01 0.01 0.02 0.02
0.01 0.01 0.02 0.02 0.02 0.03 0.04 0.03 0.03 0.02 0.02 0.02 0.03 0.03 0.04 0.05 0.05 0.07 0.08 0.08 0.07 0.06 0.04 0.03 0.02 0.02 0.03 0.03 0.02 0.01 0.01 0.02 0.02 0.02 0.02 0.02 0.02 0.02
0.02 0.02 0.02 0.02 0.02 0.03 0.04 0.04 0.04 0.03 0.03 0.03 0.03 0.03 0.03 0.04 0.05 0.05 0.06 0.06 0.07 0.05 0.03 0.02 0.02 0.02 0.02 0.02 0.02 0.01 0.01 0.01 0.01 0.02 0.02 0.02 0.02 0.03
0.02 0.02 0.02 0.02 0.02 0.02 0.03 0.03 0.03 0.05 0.05 0.04 0.04 0.03 0.04 0.04 0.05 0.05 0.06 0.06 0.05 0.04 0.03 0.02 0.02 0.02 0.02 0.02 0.02 0.01 0.01 0.01 0.01 0.01 0.02 0.02 0.02 0.03
0.02 0.02 0.02 0.03 0.03 0.03 0.03 0.03 0.03 0.04 0.05 0.05 0.04 0.04 0.04 0.04 0.04 0.05 0.06 0.06 0.06 0.05 0.03 0.03 0.03 0.03 0.03 0.03 0.02 0.02 0.02 0.01 0.01 0.02 0.02 0.02 0.02 0.03
0.03 0.03 0.03 0.03 0.03 0.02 0.02 0.02 0.03 0.03 0.03 0.04 0.04 0.04 0.04 0.04 0.04 0.04 0.05 0.06 0.07 0.07 0.05 0.04 0.04 0.03 0.04 0.03 0.03 0.03 0.02 0.02 0.02 0.02 0.02 0.02 0.02 0.03
0.05 0.05 0.04 0.03 0.03 0.02 0.02 0.02 0.03 0.03 0.03 0.03 0.04 0.04 0.04 0.04 0.04 0.04 0.05 0.05 0.06 0.06 0.06 0.05 0.05 0.05 0.04 0.04 0.04 0.04 0.03 0.03 0.03 0.03 0.03 0.03 0.03 0.03
0.05 0.06 0.06 0.05 0.03 0.02 0.02 0.02 0.02 0.03 0.03 0.03 0.04 0.04 0.05 0.05 0.04 0.04 0.05 0.05 0.05 0.05 0.04 0.04 0.04 0.06 0.07 0.06 0.05 0.04 0.03 0.03 0.03 0.03 0.03 0.03 0.03 0.03
0.05 0.05 0.05 0.05 0.04 0.03 0.03 0.03 0.03 0.02 0.03 0.03 0.04 0.04 0.04 0.05 0.05 0.05 0.05 0.05 0.05 0.05 0.04 0.04 0.04 0.05 0.06 0.05 0.04 0.03 0.03 0.03 0.04 0.04 0.04 0.03 0.02 0.02
0.04 0.04 0.04 0.04 0.04 0.04 0.04 0.04 0.03 0.03 0.04 0.04 0.04 0.04 0.04 0.05 0.05 0.05 0.05 0.05 0.05 0.05 0.05 0.05 0.04 0.04 0.04 0.03 0.03 0.03 0.02 0.03 0.03 0.03 0.03 0.03 0.03 0.03
0.04 0.04 0.04 0.05 0.05 0.04 0.04 0.04 0.04 0.04 0.05 0.05 0.05 0.05 0.05 0.05 0.05 0.05 0.05 0.05 0.05 0.05 0.04 0.04 0.04 0.04 0.04 0.04 0.04 0.04 0.04 0.03 0.03 0.03 0.03 0.04 0.04 0.04
0.03 0.03 0.03 0.04 0.04 0.05 0.05 0.05 0.05 0.05 0.05 0.05 0.05 0.06 0.05 0.05 0.05 0.05 0.05 0.05 0.05 0.05 0.04 0.04 0.05 0.05 0.05 0.05 0.05 0.04 0.05 0.05 0.04 0.04 0.03 0.03 0.03 0.03
0.02 0.03 0.03 0.03 0.03 0.04 0.04 0.05 0.05 0.06 0.06 0.06 0.06 0.06 0.06 0.06 0.06 0.06 0.06 0.06 0.05 0.06 0.06 0.07 0.07 0.07 0.06 0.05 0.05 0.04 0.04 0.04 0.04 0.04 0.04 0.03 0.02 0.02
MSLP
1033.49 1033.50 1033.48 1033.41 1033.28 1033.10 1032.88 1032.61 1032.32 1032.03 1031.74 1031.47 1031.24 1031.02 1030.82 1030.62 1030.40 1030.14 1029.82 1029.43 1028.97 1028.45 1027.89 1027.32 1026.77 1026.27 1025.84 1025.51 1025.28 1025.13 1025.06 1025.04 1025.03 1025.03 1025.01 1024.97 1024.89 1024.80
1033.24 1033.28 1033.30 1033.27 1033.19 1033.04 1032.83 1032.58 1032.29 1032.00 1031.71 1031.44 1031.20 1031.00 1030.81 1030.64 1030.45 1030.23 1029.96 1029.63 1029.24 1028.81 1028.35 1027.88 1027.43 1027.02 1026.68 1026.41 1026.22 1026.09 1026.00 1025.93 1025.88 1025.81 1025.72 1025.61 1025.49 1025.35
1032.86 1032.90 1032.94 1032.94 1032.88 1032.77 1032.59 1032.36 1032.09 1031.82 1031.54 1031.29 1031.07 1030.88 1030.72 1030.56 1030.41 1030.22 1030.00 1029.74 1029.43 1029.08 1028.71 1028.33 1027.98 1027.66 1027.40 1027.19 1027.03 1026.90 1026.80 1026.71 1026.61 1026.49 1026.36 1026.21 1026.05 1025.90
1032.43 1032.46 1032.49 1032.50 1032.47 1032.38 1032.23 1032.03 1031.80 1031.55 1031.30 1031.07 1030.87 1030.71 1030.56 1030.44 1030.31 1030.17 1030.00 1029.79 1029.55 1029.28 1028.99 1028.71 1028.44 1028.20 1028.00 1027.83 1027.70 1027.58 1027.47 1027.36 1027.23 1027.09 1026.93 1026.76 1026.60 1026.45
1032.00 1032.01 1032.04 1032.05 1032.03 1031.96 1031.84 1031.67 1031.47 1031.25 1031.04 1030.84 1030.66 1030.52 1030.40 1030.30 1030.20 1030.09 1029.96 1029.81 1029.63 1029.43 1029.23 1029.02 1028.83 1028.65 1028.50 1028.36 1028.25 1028.13 1028.02 1027.89 1027.75 1027.60 1027.44 1027.28 1027.13 1027.00
1031.60 1031.60 1031.61 1031.62 1031.61 1031.56 1031.46 1031.32 1031.16 1030.98 1030.79 1030.62 1030.47 1030.34 1030.24 1030.16 1030.08 1030.00 1029.92 1029.81 1029.69 1029.56 1029.42 1029.28 1029.15 1029.02 1028.91 1028.80 1028.69 1028.58 1028.46 1028.34 1028.20 1028.05 1027.90 1027.76 1027.64 1027.54
1031.23 1031.21 1031.22 1031.22 1031.22 1031.18 1031.11 1031.00 1030.87 1030.72 1030.56 1030.42 1030.29 1030.18 1030.09 1030.03 1029.97 1029.92 1029.87 1029.81 1029.74 1029.67 1029.59 1029.51 1029.42 1029.34 1029.25 1029.16 1029.06 1028.95 1028.83 1028.71 1028.57 1028.44 1028.32 1028.21 1028.12 1028.05
1030.84 1030.82 1030.82 1030.83 1030.83 1030.81 1030.76 1030.68 1030.57 1030.45 1030.33 1030.21 1030.10 1030.01 1029.94 1029.89 1029.86 1029.83 1029.82 1029.80 1029.79 1029.76 1029.73 1029.70 1029.65 1029.60 1029.53 1029.45 1029.36 1029.25 1029.14 1029.02 1028.90 1028.80 1028.70 1028.62 1028.56 1028.51
1030.39 1030.37 1030.37 1030.39 1030.39 1030.38 1030.35 1030.30 1030.22 1030.14 1030.04 1029.95 1029.87 1029.81 1029.76 1029.74 1029.73 1029.74 1029.76 1029.79 1029.82 1029.84 1029.86 1029.86 1029.84 1029.81 1029.76 1029.69 1029.60 1029.50 1029.40 1029.29 1029.20 1029.11 1029.04 1028.98 1028.94 1028.91
1029.83 1029.83 1029.83 1029.85 1029.86 1029.87 1029.85 1029.83 1029.78 1029.73 1029.68 1029.63 1029.59 1029.56 1029.56 1029.57 1029.60 1029.65 1029.71 1029.78 1029.85 1029.91 1029.96 1029.99 1030.00 1029.98 1029.94 1029.88 1029.80 1029.72 1029.62 1029.53 1029.45 1029.39 1029.34 1029.30 1029.27 1029.24
1029.17 1029.17 1029.18 1029.20 1029.22 1029.24 1029.25 1029.25 1029.24 1029.24 1029.23 1029.23 1029.24 1029.27 1029.31 1029.37 1029.45 1029.55 1029.65 1029.76 1029.87 1029.96 1030.04 1030.09 1030.12 1030.12 1030.09 1030.03 1029.96 1029.89 1029.81 1029.74 1029.68 1029.63 1029.60 1029.57 1029.54 1029.50
1028.40 1028.42 1028.44 1028.47 1028.50 1028.52 1028.55 1028.59 1028.62 1028.66 1028.71 1028.77 1028.85 1028.94 1029.05 1029.17 1029.30 1029.44 1029.60 1029.74 1029.88 1030.00 1030.10 1030.16 1030.20 1030.21 1030.19 1030.14 1030.08 1030.02 1029.96 1029.91 1029.87 1029.84 1029.81 1029.78 1029.74 1029.68
1027.58 1027.61 1027.64 1027.68 1027.72 1027.76 1027.81 1027.88 1027.96 1028.05 1028.17 1028.29 1028.44 1028.60 1028.77 1028.96 1029.15 1029.34 1029.53 1029.71 1029.88 1030.01 1030.12 1030.20 1030.24 1030.25 1030.24 1030.20 1030.16 1030.11 1030.07 1030.04 1030.01 1029.99 1029.96 1029.93 1029.87 1029.79
1026.72 1026.77 1026.82 1026.87 1026.92 1026.99 1027.07 1027.18 1027.30 1027.45 1027.62 1027.82 1028.03 1028.26 1028.49 1028.74 1028.98 1029.22 1029.44 1029.65 1029.84 1029.99 1030.11 1030.19 1030.24 1030.25 1030.24 1030.22 1030.19 1030.15 1030.12 1030.10 1030.08 1030.07 1030.04 1029.99 1029.91 1029.80
1025.84 1025.91 1025.98 1026.05 1026.13 1026.23 1026.35 1026.49 1026.67 1026.87 1027.10 1027.35 1027.62 1027.91 1028.20 1028.49 1028.78 1029.05 1029.30 1029.54 1029.73 1029.90 1030.03 1030.11 1030.17 1030.19 1030.19 1030.18 1030.16 1030.14 1030.12 1030.10 1030.08 1030.05 1030.01 1029.94 1029.83 1029.69
1024.92 1025.02 1025.12 1025.23 1025.34 1025.47 1025.63 1025.82 1026.04 1026.30 1026.58 1026.88 1027.20 1027.52 1027.85 1028.18 1028.50 1028.80 1029.08 1029.33 1029.54 1029.72 1029.86 1029.96 1030.03 1030.07 1030.09 1030.09 1030.08 1030.06 1030.04 1030.02 1029.99 1029.94 1029.87 1029.77 1029.63 1029.44
1023.94 1024.07 1024.20 1024.34 1024.50 1024.68 1024.88 1025.12 1025.39 1025.69 1026.01 1026.35 1026.70 1027.06 1027.41 1027.76 1028.10 1028.42 1028.72 1028.99 1029.23 1029.43 1029.60 1029.73 1029.82 1029.88 1029.92 1029.94 1029.94 1029.93 1029.91 1029.87 1029.81 1029.73 1029.62 1029.47 1029.29 1029.06
1022.86 1023.02 1023.18 1023.36 1023.56 1023.79 1024.05 1024.34 1024.65 1024.99 1025.35 1025.71 1026.09 1026.46 1026.84 1027.20 1027.56 1027.90 1028.22 1028.52 1028.79 1029.02 1029.23 1029.40 1029.54 1029.64 1029.71 1029.75 1029.76 1029.75 1029.71 1029.64 1029.55 1029.42 1029.26 1029.05 1028.82 1028.55
1021.68 1021.84 1022.03 1022.25 1022.50 1022.78 1023.09 1023.43 1023.78 1024.16 1024.54 1024.94 1025.33 1025.72 1026.10 1026.48 1026.85 1027.21 1027.56 1027.90 1028.21 1028.51 1028.77 1028.99 1029.18 1029.33 1029.44 1029.51 1029.53 1029.52 1029.46 1029.36 1029.22 1029.04 1028.82 1028.56 1028.27 1027.95
1020.40 1020.57 1020.78 1021.03 1021.31 1021.64 1022.00 1022.38 1022.78 1023.19 1023.60 1024.01 1024.41 1024.81 1025.21 1025.60 1026.00 1026.39 1026.78 1027.16 1027.54 1027.89 1028.22 1028.52 1028.77 1028.98 1029.13 1029.23 1029.27 1029.25 1029.17 1029.04 1028.85 1028.61 1028.33 1028.02 1027.68 1027.31
1019.10 1019.26 1019.48 1019.75 1020.06 1020.43 1020.82 1021.24 1021.67 1022.10 1022.53 1022.96 1023.38 1023.79 1024.20 1024.61 1025.03 1025.46 1025.90 1026.34 1026.78 1027.20 1027.61 1027.97 1028.30 1028.56 1028.76 1028.89 1028.95 1028.93 1028.84 1028.67 1028.45 1028.17 1027.84 1027.48 1027.09 1026.70
1017.85 1018.00 1018.21 1018.49 1018.82 1019.20 1019.62 1020.06 1020.51 1020.96 1021.41 1021.84 1022.27 1022.69 1023.12 1023.56 1024.00 1024.48 1024.96 1025.46 1025.96 1026.45 1026.93 1027.36 1027.75 1028.07 1028.31 1028.48 1028.55 1028.54 1028.44 1028.26 1028.02 1027.71 1027.35 1026.96 1026.56 1026.14
1016.74 1016.87 1017.07 1017.34 1017.67 1018.06 1018.48 1018.92 1019.37 1019.83 1020.27 1020.71 1021.14 1021.58 1022.02 1022.48 1022.96 1023.46 1023.99 1024.54 1025.10 1025.65 1026.18 1026.67 1027.10 1027.47 1027.75 1027.95 1028.04 1028.05 1027.96 1027.78 1027.54 1027.23 1026.87 1026.48 1026.07 1025.66
Thickness
5443 5445 5447 5450 5452 5454 5457 5460 5462 5467 5471 5472 5472 5473 5473 5474 5475 5477 5480 5483 5484 5486 5488 5490 5491 5493 5494 5495 5496 5497 5498 5499 5500 5500 5500 5500 5501 5501
5430 5432 5435 5437 5439 5440 5443 5446 5448 5452 5458 5462 5460 5461 5460 5461 5462 5464 5467 5470 5472 5474 5476 5477 5479 5480 5481 5482 5484 5485 5486 5487 5488 5488 5487 5488 5489 5489
5417 5419 5422 5424 5426 5429 5431 5433 5435 5437 5441 5446 5446 5446 5447 5449 5450 5452 5454 5456 5459 5462 5463 5465 5466 5467 5468 5469 5471 5472 5473 5474 5475 5475 5475 5476 5476 5477
5404 5406 5409 5410 5413 5416 5418 5420 5422 5424 5426 5428 5431 5432 5435 5437 5438 5440 5441 5443 5446 5449 5450 5452 5453 5455 5455 5456 5458 5459 5460 5461 5462 5462 5463 5464 5464 5463
5390 5393 5395 5397 5400 5402 5404 5407 5408 5410 5411 5413 5417 5419 5421 5422 5424 5426 5428 5431 5433 5435 5436 5438 5440 5441 5442 5443 5444 5445 5447 5448 5449 5450 5449 5449 5450 5451
5377 5379 5382 5384 5386 5388 5390 5392 5394 5395 5396 5398 5401 5404 5406 5408 5410 5414 5416 5418 5420 5421 5423 5425 5427 5428 5429 5431 5432 5433 5433 5433 5434 5435 5436 5437 5437 5437
5364 5366 5368 5370 5372 5374 5376 5378 5379 5381 5383 5385 5387 5390 5393 5395 5399 5402 5403 5405 5406 5408 5409 5412 5414 5416 5417 5417 5417 5419 5420 5421 5421 5422 5422 5423 5424 5424
5351 5353 5355 5357 5358 5360 5362 5364 5365 5368 5371 5373 5375 5379 5383 5385 5386 5387 5389 5391 5395 5397 5396 5399 5400 5402 5404 5405 5406 5406 5407 5408 5409 5409 5409 5410 5410 5411
5337 5339 5342 5344 5345 5347 5349 5350 5352 5355 5358 5360 5363 5367 5370 5373 5374 5376 5377 5379 5383 5384 5382 5386 5387 5389 5391 5392 5392 5393 5394 5394 5395 5396 5396 5396 5397 5397
5323 5326 5328 5331 5332 5333 5335 5338 5340 5343 5345 5347 5350 5353 5355 5357 5360 5363 5364 5364 5366 5367 5368 5371 5374 5376 5377 5378 5379 5379 5380 5381 5381 5382 5382 5383 5383 5383
5310 5313 5315 5318 5320 5321 5322 5325 5328 5330 5331 5333 5335 5338 5340 5342 5344 5346 5348 5350 5354 5355 5355 5357 5360 5361 5362 5364 5365 5365 5365 5366 5367 5368 5368 5368 5368 5368
5298 5301 5303 5305 5307 5308 5310 5312 5315 5318 5319 5321 5322 5325 5327 5329 5331 5334 5337 5339 5342 5343 5344 5344 5345 5344 5347 5350 5350 5350 5351 5351 5352 5353 5354 5354 5354 5353
5285 5289 5291 5293 5295 5297 5298 5300 5304 5305 5306 5308 5310 5312 5314 5317 5320 5322 5324 5327 5330 5332 5332 5330 5330 5330 5331 5335 5336 5336 5337 5338 5338 5339 5339 5340 5340 5340
5271 5275 5278 5280 5282 5285 5287 5289 5291 5292 5294 5296 5298 5301 5303 5305 5308 5309 5311 5313 5316 5318 5318 5317 5318 5319 5319 5320 5323 5324 5324 5324 5324 5326 5326 5327 5328 5328
5258 5262 5265 5268 5270 5273 5275 5276 5278 5279 5282 5284 5287 5290 5292 5293 5294 5294 5296 5297 5299 5300 5301 5303 5305 5306 5307 5309 5311 5310 5311 5311 5312 5313 5314 5314 5316 5317
5247 5250 5253 5255 5258 5260 5263 5264 5265 5268 5270 5273 5275 5276 5277 5278 5279 5281 5282 5283 5284 5286 5287 5288 5290 5292 5294 5296 5297 5298 5299 5300 5301 5300 5301 5302 5304 5306
5234 5237 5240 5243 5246 5248 5250 5251 5253 5255 5257 5260 5262 5263 5264 5265 5266 5267 5268 5269 5271 5273 5275 5274 5275 5277 5279 5281 5283 5286 5287 5288 5289 5288 5288 5291 5294 5295
5221 5224 5227 5229 5232 5235 5237 5239 5241 5243 5245 5247 5248 5250 5251 5252 5253 5254 5255 5257 5259 5261 5262 5263 5263 5263 5264 5267 5269 5272 5274 5276 5276 5276 5276 5279 5283 5286
5208 5211 5214 5216 5218 5220 5223 5225 5227 5229 5231 5233 5234 5236 5237 5238 5240 5241 5243 5244 5246 5248 5249 5249 5250 5252 5255 5259 5262 5259 5261 5263 5263 5264 5265 5268 5273 5276
5195 5198 5200 5202 5204 5207 5209 5211 5214 5215 5217 5219 5221 5222 5223 5225 5227 5229 5231 5233 5234 5235 5236 5237 5239 5242 5244 5248 5249 5249 5248 5250 5252 5254 5256 5257 5260 5263
5181 5183 5186 5188 5191 5193 5195 5198 5200 5202 5204 5205 5208 5209 5211 5212 5215 5217 5219 5221 5221 5223 5225 5228 5230 5230 5229 5230 5233 5237 5238 5238 5241 5243 5245 5246 5249 5253
5167 5169 5172 5175 5177 5180 5182 5184 5187 5189 5191 5193 5195 5197 5199 5200 5203 5205 5207 5209 5211 5213 5215 5216 5216 5216 5218 5221 5225 5227 5228 5229 5231 5232 5235 5238 5240 5245
5153 5155 5158 5161 5164 5167 5169 5171 5173 5176 5178 5180 5183 5185 5186 5188 5190 5193 5195 5198 5200 5202 5203 5204 5205 5206 5209 5211 5214 5216 5218 5220 5222 5225 5228 5230 5232 5235